Location: Aldenham
(51.6667°N, 0.3500°W)
Time: 17:05:19
(UTC+00:00)

Nadezhda 4 Rocket - Pass Details

Date: 18 November 2025
Orbit: 948 x 991 km, 82.9° (Epoch: 12 December)

Event Time Altitude Azimuth Distance (km) Brightness Sun altitude
Rises 18:34:07 0° 348° (NNW) 3,708 7.2 -22.4°
Reaches altitude 10° 18:36:41 10° 345° (NNW) 2,751 6.5 -22.8°
Maximum altitude 18:42:54 64° 266° (W) 1,080 4.4 -23.8°
Drops below altitude 10° 18:49:00 10° 187° (S) 2,704 6.4 -24.7°
Sets 18:51:30 0° 184° (S) 3,641 7.0 -25.1°
